Find Starlink 3976

NORAD ID: 52673 Int'l Des: 2022-053 Owner: SPXS Country: US Constellation: starlink operational
LEOCIRCULAR

リアルタイム位置

3D地球を読み込み中...

Starlink 3976について

説明を読み込み中...

次回通過

Passes for default location (London). Set your location on the main map for personalized predictions.

高度履歴

Loading altitude history...

軌道要素

1 52673U 22053T 26121.69433556 .00000641 00000-0 58333-4 0 9995
2 52673 53.2180 276.1733 0001309 88.2647 271.8495 15.08843253219042
Epoch: May 1, 2026 • Age: 11 hours

現在のステータス

高度 552.6 km
速度 7.58 km/s
衛星直下点 -37.46°S, 139.33°W
打ち上げ日 May 18, 2022
運用期間 3.9 years
タイプ internet

技術仕様

分類 Payload
質量 297.00 kg
乾燥質量 275.00 kg
総質量 297.00 kg
長さ 0.20 m
直径 2.80 m
スパン 9.00 m
形状 Box + pan
製造者 SPXS
バスタイプ Starlink
フェーズステータス In Orbit
所有者/国 SPXS/US

Most Searched